Showing default

MIDAS 3, 163

Orbit data source: Space-Track

MIDAS 3, 163 is a payload satellite owned by USAF SSD (US) in LEO that was launched on Wed, 12 Jul 1961 UTC via an ATLAS AGENA B launch vehicle from the Air Force Western Test Range (AFWTR). Payload-class satellites include a variety of spacecraft equipped with specific instruments for various scientific and technological missions. These include communications satellites like Starlink; space stations such as the ISS; scientific satellites like the Hubble; Earth observation satellites from companies like Planet Labs, Umbra, and HawkEye 360; GPS; miniature CubeSats for education and research; and military/defense satellites.

Loading next visibility...
Identifier
163, 1961-018A
Orbit
LEO
Country
Flag of USUS
Related business
Manufacturer
LMSC
Mission
Spacecraft
Bus & Motor
MIDAS, Unknown motor
Mass
~1,540 kg wet, 840 kg dry
Launch date (UTC)
1961-07-12 (64 years ago)
Launch vehicle
ATLAS AGENA B
Launch site
Air Force Western Test Range (AFWTR)
Object type
Payload
Rocket body
Debris
Shape & HBR
Unknown
Radar Cross Section
Large (>1 m²)

Expand to show TLE details & history
Last TLE update: 1 day ago

TLE from 1 day ago
0 MIDAS 3
1 00163U 61018A   25309.65025808  .00000015  00000-0  47795-2 0  9999
2 00163  91.1089 195.6269 0101093  40.5703 320.2650  8.91838508 94080
Epoch: 2025-11-05T15:36Z
TLE epoch observation values (Epoch: 2025-11-05T15:36:22.298Z)
Latitude
-0.00007°
Longitude
-83.58589°
Altitude
3,370.4 km
Speed
6.42 km/s
True Right ascension
13h 02m 30s
True Declination
0° 00' 00"
Sunlit
Object was in daylight at epoch
Visualization orbit readout
Latitude
Unknown
Longitude
Unknown
Altitude
Unknown
Speed
Unknown
Apparent Right ascension
Unknown
Apparent Declination
Unknown
Sunlit
N/A
Visualization observer readout
Local Sidereal Time
13:34:12
Azimuth
Unknown
Elevation
Unknown
Doppler factor
Unknown
Orbital elements
Apogee altitude
3,541.154 km
Perigee altitude
3,342.607 km
Semi-major axis
9,820.018 km
Eccentricity
0.01011
Inclination
91.1089°
RAAN
195.6269°
Arg. of periapsis
40.5703°
True anomaly
319.51724°
Mean anomaly
320.265°
Eccentric anomaly
319.89185°
Mean motion
2.23036 °/min
Orbital period
161.41 mins
BSTAR
0.0047795
Loading maneuver chart data...
Computing Atmospheric mass density...
Loading historical data...
Loading historical data...
Loading historical data...
Loading historical data...
Loading historical data...
Loading historical data...
Loading historical data...
Other satellites on launch #18 in the year 1961 (1961-07-12 UTC)

Documentation

Showing up to 5 results
|